Berlin — 9HA2295 — position and weather

sailwx.info

Track history (hours):
 
Tides and Currents Weather Stations Pressure Air Temp Water Temp Dewpoint Dewpoint Depression Visibility Wind Speed Wind Dir Waves Ship Positions

Berlin

Last reported at 2014-Jul-30 16:31 UTC. Time now 2014-Jul-30 17:23 UTC.
Position N 53°34' E 008°33'.

Length 140 m; draft 5 m.

Type: Passenger vessel. MMSI: 248277000.

Date/timePositionNaut miles runAvg speedWind from/ knotsBaromVisibWave heightAir tempDewpointWater temp
2014-Jul-30 16:31N 53°34' E 008°33'0 0.0
2014-Jul-30 15:31N 53°34' E 008°33'0 0.0
2014-Jul-30 14:31N 53°34' E 008°33'0 0.0
2014-Jul-30 13:31N 53°34' E 008°33'0 0.0
2014-Jul-30 12:31N 53°34' E 008°33'0 0.0
2014-Jul-30 11:31N 53°34' E 008°33'0 0.0
2014-Jul-30 10:31N 53°34' E 008°33'0 0.0
2014-Jul-30 09:31N 53°34' E 008°33'0 0.2
2014-Jul-30 08:33N 53°33' E 008°33'8 8.4
2014-Jul-30 07:33N 53°40' E 008°23'1211.8
2014-Jul-30 06:33N 53°47' E 008°09'1211.8
2014-Jul-30 05:32N 53°52' E 007°50'1111.6
2014-Jul-30 04:33N 53°60' E 007°35'1414.1
2014-Jul-30 03:33N 54°12' E 007°25'1413.9
2014-Jul-30 02:33N 54°26' E 007°23'1413.6
2014-Jul-30 01:33N 54°39' E 007°29'1514.5
2014-Jul-30 00:29N 54°50' E 007°47'1414.5
2014-Jul-29 23:33N 55°00' E 008°04'11 7.9
2014-Jul-29 22:12N 55°04' E 008°21'4 6.3
2014-Jul-29 21:33N 55°01' E 008°27'0 0.2
2014-Jul-29 19:33N 55°01' E 008°26'0 0.0
2014-Jul-29 15:27N 55°01' E 008°27'0 0.0
2014-Jul-29 13:27N 55°01' E 008°26'0 0.5
2014-Jul-29 12:33N 55°01' E 008°27'6 5.6
2014-Jul-29 11:33N 55°05' E 008°20'1512.6
2014-Jul-29 10:24N 55°10' E 007°56'3015.0
2014-Jul-29 08:25N 55°19' E 007°07'2412.9
2014-Jul-29 06:33N 55°39' E 006°41'1413.9
2014-Jul-29 05:32N 55°52' E 006°35'14414.3
2014-Jul-28 19:28N 58°11' E 005°23'3013.3
2014-Jul-28 17:13N 58°41' E 005°19'913.6
2014-Jul-28 16:33N 58°49' E 005°26'10 9.8
2014-Jul-28 15:33N 58°58' E 005°33'5 5.5
2014-Jul-28 14:33N 58°59' E 005°43'0 0.3
2014-Jul-28 13:31N 58°58' E 005°44'0 0.0
2014-Jul-28 12:31N 58°58' E 005°44'0 0.0
2014-Jul-28 11:31N 58°58' E 005°44'0 0.0
2014-Jul-28 10:31N 58°58' E 005°44'0 0.0
2014-Jul-28 09:31N 58°58' E 005°44'0 0.0
2014-Jul-28 08:31N 58°58' E 005°44'0 0.0
2014-Jul-28 07:31N 58°58' E 005°44'0 0.0
2014-Jul-28 06:33N 58°58' E 005°44'3 3.2
2014-Jul-28 05:33N 59°01' E 005°40'1110.6
2014-Jul-28 04:33N 59°05' E 005°20'1211.6
2014-Jul-28 03:33N 59°07' E 004°58'78 7.5
2014-Jul-27 17:10N 60°24' E 005°19'0 0.0
2014-Jul-27 16:28N 60°24' E 005°19'0 0.0
2014-Jul-27 15:28N 60°24' E 005°19'0 0.0
2014-Jul-27 14:28N 60°24' E 005°19'0 0.0
2014-Jul-27 13:28N 60°24' E 005°19'0 0.0
2014-Jul-27 12:28N 60°24' E 005°19'0 0.0
2014-Jul-27 11:33N 60°24' E 005°19'6 6.2
2014-Jul-27 10:33N 60°19' E 005°12'11312.0
2014-Jul-27 01:09N 58°26' E 005°14'914.8
2014-Jul-27 00:34N 58°20' E 005°27'1515.4
2014-Jul-26 23:33N 58°10' E 005°49'7114.2
2014-Jul-26 18:33N 57°52' E 007°59'14 1.9
2014-Jul-26 11:06N 58°06' E 008°03'610.8
2014-Jul-26 10:33N 58°01' E 008°06'13015.4
2014-Jul-26 02:07N 55°56' E 007°01'1213.8
2014-Jul-26 01:16N 55°44' E 006°56'1213.6
2014-Jul-26 00:25N 55°33' E 006°51'1213.4
2014-Jul-25 23:33N 55°21' E 006°50'1514.2
2014-Jul-25 22:29N 55°06' E 006°54'3213.4
2014-Jul-25 20:06N 54°36' E 007°11'4 7.1
2014-Jul-25 19:33N 54°40' E 007°09'1313.4
2014-Jul-25 18:33N 54°27' E 007°16'1313.5
2014-Jul-25 17:33N 54°15' E 007°26'1414.1
2014-Jul-25 16:33N 54°02' E 007°37'1313.0
2014-Jul-25 15:33N 53°52' E 007°51'1413.6
2014-Jul-25 14:33N 53°46' E 008°11'1615.5
2014-Jul-25 13:33N 53°36' E 008°31'2 2.3
2014-Jul-25 12:30N 53°34' E 008°33'0 0.0
2014-Jul-25 11:30N 53°34' E 008°33'0 0.0
2014-Jul-25 10:30N 53°34' E 008°33'0 0.0
2014-Jul-25 09:30N 53°34' E 008°33'0 0.0
2014-Jul-25 08:30N 53°34' E 008°33'0 0.0
2014-Jul-25 07:30N 53°34' E 008°33'0 0.0
2014-Jul-25 06:30N 53°34' E 008°33'0 0.3
2014-Jul-25 05:33N 53°34' E 008°33'10 9.8
2014-Jul-25 04:34N 53°41' E 008°21'1212.2
2014-Jul-25 03:33N 53°49' E 008°06'1110.7
2014-Jul-25 02:33N 53°52' E 007°49'1110.6
2014-Jul-25 01:34N 53°59' E 007°35'1211.7
2014-Jul-25 00:33N 54°10' E 007°27'1211.8
2014-Jul-24 23:33N 54°21' E 007°20'1211.9
2014-Jul-24 22:33N 54°33' E 007°14'2322.9
2014-Jul-24 21:33N 54°54' E 007°02'2 2.3
2014-Jul-24 20:31N 54°56' E 007°00'1212.6
2014-Jul-24 19:32N 55°08' E 006°54'3121.4
2014-Jul-24 18:06N 55°38' E 006°40'3 5.4
2014-Jul-24 17:29N 55°35' E 006°42'2018.0
2014-Jul-24 16:22N 55°54' E 006°32'6 7.8
2014-Jul-24 15:33N 56°00' E 006°29'4613.3
2014-Jul-24 12:06N 56°45' E 006°07'6413.9
2014-Jul-24 07:31N 57°44' E 005°26'1313.8
2014-Jul-24 06:33N 57°57' E 005°16'1413.6
2014-Jul-24 05:33N 58°10' E 005°08'1413.5
2014-Jul-24 04:33N 58°23' E 004°60'1313.6
2014-Jul-24 03:33N 58°36' E 004°56'1313.2
2014-Jul-24 02:33N 58°49' E 004°51'1312.9
2014-Jul-24 01:33N 59°01' E 004°45'1312.8
2014-Jul-24 00:33N 59°14' E 004°40'1313.0
2014-Jul-23 23:33N 59°27' E 004°43'1313.3
2014-Jul-23 22:33N 59°40' E 004°46'1713.3
2014-Jul-23 21:14N 59°57' E 004°51'1911.2
2014-Jul-23 19:33N 60°14' E 005°09'1110.8
2014-Jul-23 18:33N 60°24' E 005°17'1 0.8
2014-Jul-23 17:18N 60°24' E 005°19'0 0.0
2014-Jul-23 16:30N 60°24' E 005°19'0 0.0
2014-Jul-23 15:30N 60°24' E 005°19'0 0.0
2014-Jul-23 14:30N 60°24' E 005°19'0 0.0
2014-Jul-23 13:30N 60°24' E 005°19'0 0.0
2014-Jul-23 12:12N 60°24' E 005°19'0 0.0
2014-Jul-23 11:24N 60°24' E 005°19'0 0.0
2014-Jul-23 10:29N 60°24' E 005°19'0 0.0
2014-Jul-23 09:29N 60°24' E 005°19'0 0.0
2014-Jul-23 08:30N 60°24' E 005°19'0 0.0
2014-Jul-23 07:30N 60°24' E 005°19'0 0.0
2014-Jul-23 06:30N 60°24' E 005°19'0 0.0
2014-Jul-23 05:30N 60°24' E 005°19'0 0.5
2014-Jul-23 04:34N 60°24' E 005°18'9 9.1
2014-Jul-23 03:33N 60°27' E 005°00'  
2014-Jul-20 17:27N 63°30' E 009°55'1213.3
2014-Jul-20 16:33N 63°27' E 010°21'  
Track history (hours):
 
Tides and Currents Weather Stations Pressure Air Temp Water Temp Dewpoint Dewpoint Depression Visibility Wind Speed Wind Dir Waves Ship Positions

Berlin

Last reported at 2014-Jul-30 16:31 UTC. Time now 2014-Jul-30 17:23 UTC.
Position N 53°34' E 008°33'.

Length 140 m; draft 5 m.

Type: Passenger vessel. MMSI: 248277000.

Date/timePositionNaut miles runAvg speedWind from/ knotsBaromVisibWave heightAir tempDewpointWater temp
2014-Jul-30 16:31N 53°34' E 008°33'0 0.0
2014-Jul-30 15:31N 53°34' E 008°33'0 0.0
2014-Jul-30 14:31N 53°34' E 008°33'0 0.0
2014-Jul-30 13:31N 53°34' E 008°33'0 0.0
2014-Jul-30 12:31N 53°34' E 008°33'0 0.0
2014-Jul-30 11:31N 53°34' E 008°33'0 0.0
2014-Jul-30 10:31N 53°34' E 008°33'0 0.0
2014-Jul-30 09:31N 53°34' E 008°33'0 0.2
2014-Jul-30 08:33N 53°33' E 008°33'8 8.4
2014-Jul-30 07:33N 53°40' E 008°23'1211.8
2014-Jul-30 06:33N 53°47' E 008°09'1211.8
2014-Jul-30 05:32N 53°52' E 007°50'1111.6
2014-Jul-30 04:33N 53°60' E 007°35'1414.1
2014-Jul-30 03:33N 54°12' E 007°25'1413.9
2014-Jul-30 02:33N 54°26' E 007°23'1413.6
2014-Jul-30 01:33N 54°39' E 007°29'1514.5
2014-Jul-30 00:29N 54°50' E 007°47'1414.5
2014-Jul-29 23:33N 55°00' E 008°04'11 7.9
2014-Jul-29 22:12N 55°04' E 008°21'4 6.3
2014-Jul-29 21:33N 55°01' E 008°27'0 0.2
2014-Jul-29 19:33N 55°01' E 008°26'0 0.0
2014-Jul-29 15:27N 55°01' E 008°27'0 0.0
2014-Jul-29 13:27N 55°01' E 008°26'0 0.5
2014-Jul-29 12:33N 55°01' E 008°27'6 5.6
2014-Jul-29 11:33N 55°05' E 008°20'1512.6
2014-Jul-29 10:24N 55°10' E 007°56'3015.0
2014-Jul-29 08:25N 55°19' E 007°07'2412.9
2014-Jul-29 06:33N 55°39' E 006°41'1413.9
2014-Jul-29 05:32N 55°52' E 006°35'14414.3
2014-Jul-28 19:28N 58°11' E 005°23'3013.3
2014-Jul-28 17:13N 58°41' E 005°19'913.6
2014-Jul-28 16:33N 58°49' E 005°26'10 9.8
2014-Jul-28 15:33N 58°58' E 005°33'5 5.5
2014-Jul-28 14:33N 58°59' E 005°43'0 0.3
2014-Jul-28 13:31N 58°58' E 005°44'0 0.0
2014-Jul-28 12:31N 58°58' E 005°44'0 0.0
2014-Jul-28 11:31N 58°58' E 005°44'0 0.0
2014-Jul-28 10:31N 58°58' E 005°44'0 0.0
2014-Jul-28 09:31N 58°58' E 005°44'0 0.0
2014-Jul-28 08:31N 58°58' E 005°44'0 0.0
2014-Jul-28 07:31N 58°58' E 005°44'0 0.0
2014-Jul-28 06:33N 58°58' E 005°44'3 3.2
2014-Jul-28 05:33N 59°01' E 005°40'1110.6
2014-Jul-28 04:33N 59°05' E 005°20'1211.6
2014-Jul-28 03:33N 59°07' E 004°58'78 7.5
2014-Jul-27 17:10N 60°24' E 005°19'0 0.0
2014-Jul-27 16:28N 60°24' E 005°19'0 0.0
2014-Jul-27 15:28N 60°24' E 005°19'0 0.0
2014-Jul-27 14:28N 60°24' E 005°19'0 0.0
2014-Jul-27 13:28N 60°24' E 005°19'0 0.0
2014-Jul-27 12:28N 60°24' E 005°19'0 0.0
2014-Jul-27 11:33N 60°24' E 005°19'6 6.2
2014-Jul-27 10:33N 60°19' E 005°12'11312.0
2014-Jul-27 01:09N 58°26' E 005°14'914.8
2014-Jul-27 00:34N 58°20' E 005°27'1515.4
2014-Jul-26 23:33N 58°10' E 005°49'7114.2
2014-Jul-26 18:33N 57°52' E 007°59'14 1.9
2014-Jul-26 11:06N 58°06' E 008°03'610.8
2014-Jul-26 10:33N 58°01' E 008°06'13015.4
2014-Jul-26 02:07N 55°56' E 007°01'1213.8
2014-Jul-26 01:16N 55°44' E 006°56'1213.6
2014-Jul-26 00:25N 55°33' E 006°51'1213.4
2014-Jul-25 23:33N 55°21' E 006°50'1514.2
2014-Jul-25 22:29N 55°06' E 006°54'3213.4
2014-Jul-25 20:06N 54°36' E 007°11'4 7.1
2014-Jul-25 19:33N 54°40' E 007°09'1313.4
2014-Jul-25 18:33N 54°27' E 007°16'1313.5
2014-Jul-25 17:33N 54°15' E 007°26'1414.1
2014-Jul-25 16:33N 54°02' E 007°37'1313.0
2014-Jul-25 15:33N 53°52' E 007°51'1413.6
2014-Jul-25 14:33N 53°46' E 008°11'1615.5
2014-Jul-25 13:33N 53°36' E 008°31'2 2.3
2014-Jul-25 12:30N 53°34' E 008°33'0 0.0
2014-Jul-25 11:30N 53°34' E 008°33'0 0.0
2014-Jul-25 10:30N 53°34' E 008°33'0 0.0
2014-Jul-25 09:30N 53°34' E 008°33'0 0.0
2014-Jul-25 08:30N 53°34' E 008°33'0 0.0
2014-Jul-25 07:30N 53°34' E 008°33'0 0.0
2014-Jul-25 06:30N 53°34' E 008°33'0 0.3
2014-Jul-25 05:33N 53°34' E 008°33'10 9.8
2014-Jul-25 04:34N 53°41' E 008°21'1212.2
2014-Jul-25 03:33N 53°49' E 008°06'1110.7
2014-Jul-25 02:33N 53°52' E 007°49'1110.6
2014-Jul-25 01:34N 53°59' E 007°35'1211.7
2014-Jul-25 00:33N 54°10' E 007°27'1211.8
2014-Jul-24 23:33N 54°21' E 007°20'1211.9
2014-Jul-24 22:33N 54°33' E 007°14'2322.9
2014-Jul-24 21:33N 54°54' E 007°02'2 2.3
2014-Jul-24 20:31N 54°56' E 007°00'1212.6
2014-Jul-24 19:32N 55°08' E 006°54'3121.4
2014-Jul-24 18:06N 55°38' E 006°40'3 5.4
2014-Jul-24 17:29N 55°35' E 006°42'2018.0
2014-Jul-24 16:22N 55°54' E 006°32'6 7.8
2014-Jul-24 15:33N 56°00' E 006°29'4613.3
2014-Jul-24 12:06N 56°45' E 006°07'6413.9
2014-Jul-24 07:31N 57°44' E 005°26'1313.8
2014-Jul-24 06:33N 57°57' E 005°16'1413.6
2014-Jul-24 05:33N 58°10' E 005°08'1413.5
2014-Jul-24 04:33N 58°23' E 004°60'1313.6
2014-Jul-24 03:33N 58°36' E 004°56'1313.2
2014-Jul-24 02:33N 58°49' E 004°51'1312.9
2014-Jul-24 01:33N 59°01' E 004°45'1312.8
2014-Jul-24 00:33N 59°14' E 004°40'1313.0
2014-Jul-23 23:33N 59°27' E 004°43'1313.3
2014-Jul-23 22:33N 59°40' E 004°46'1713.3
2014-Jul-23 21:14N 59°57' E 004°51'1911.2
2014-Jul-23 19:33N 60°14' E 005°09'1110.8
2014-Jul-23 18:33N 60°24' E 005°17'1 0.8
2014-Jul-23 17:18N 60°24' E 005°19'0 0.0
2014-Jul-23 16:30N 60°24' E 005°19'0 0.0
2014-Jul-23 15:30N 60°24' E 005°19'0 0.0
2014-Jul-23 14:30N 60°24' E 005°19'0 0.0
2014-Jul-23 13:30N 60°24' E 005°19'0 0.0
2014-Jul-23 12:12N 60°24' E 005°19'0 0.0
2014-Jul-23 11:24N 60°24' E 005°19'0 0.0
2014-Jul-23 10:29N 60°24' E 005°19'0 0.0
2014-Jul-23 09:29N 60°24' E 005°19'0 0.0
2014-Jul-23 08:30N 60°24' E 005°19'0 0.0
2014-Jul-23 07:30N 60°24' E 005°19'0 0.0
2014-Jul-23 06:30N 60°24' E 005°19'0 0.0
2014-Jul-23 05:30N 60°24' E 005°19'0 0.5
2014-Jul-23 04:34N 60°24' E 005°18'9 9.1
2014-Jul-23 03:33N 60°27' E 005°00'  
2014-Jul-20 17:27N 63°30' E 009°55'1213.3
2014-Jul-20 16:33N 63°27' E 010°21'  

Dump ship's entire track history